Time,TemperatureF,DewpointF,PressureIn,WindDirection,WindDirectionDegrees,WindSpeedMPH,WindSpeedGustMPH,Humidity,HourlyPrecipIn,Conditions,Clouds,dailyrainin,SoftwareType,DateUTC
2017-02-26 00:06:00,44.0,26.0,29.86,North,357,6.0,13.0,49,0.00,,,0.00,weatherlink.com 1.10,2017-02-26 05:06:00,
2017-02-26 00:21:00,43.9,26.0,29.87,North,355,5.0,9.0,50,0.00,,,0.00,weatherlink.com 1.10,2017-02-26 05:21:00,
2017-02-26 00:36:00,43.8,26.0,29.87,North,350,6.0,12.0,50,0.00,,,0.00,weatherlink.com 1.10,2017-02-26 05:36:00,
2017-02-26 00:51:00,43.8,26.0,29.88,NW,319,9.0,18.0,50,0.00,,,0.00,weatherlink.com 1.10,2017-02-26 05:51:00,
2017-02-26 01:06:00,43.4,26.0,29.88,NNE,28,5.0,13.0,50,0.00,,,0.00,weatherlink.com 1.10,2017-02-26 06:06:00,
2017-02-26 01:21:00,43.2,26.0,29.89,West,281,8.0,11.0,51,0.00,,,0.00,weatherlink.com 1.10,2017-02-26 06:21:00,
2017-02-26 01:36:00,43.0,26.0,29.89,North,7,6.0,13.0,51,0.00,,,0.00,weatherlink.com 1.10,2017-02-26 06:36:00,
2017-02-26 01:51:00,42.8,26.0,29.89,NNE,19,5.0,9.0,52,0.00,,,0.00,weatherlink.com 1.10,2017-02-26 06:51:00,
2017-02-26 02:06:00,42.3,26.0,29.91,West,281,0.0,13.0,52,0.00,,,0.00,weatherlink.com 1.10,2017-02-26 07:06:00,
2017-02-26 02:21:00,41.7,25.0,29.91,NW,309,7.0,14.0,52,0.00,,,0.00,weatherlink.com 1.10,2017-02-26 07:21:00,
2017-02-26 02:37:00,41.4,25.0,29.93,NNW,346,3.0,9.0,52,0.00,,,0.00,weatherlink.com 1.10,2017-02-26 07:37:00,
2017-02-26 02:52:00,40.9,24.0,29.92,SSE,150,5.0,14.0,52,0.00,,,0.00,weatherlink.com 1.10,2017-02-26 07:52:00,
2017-02-26 03:07:00,40.0,23.0,29.93,NNW,337,7.0,18.0,51,0.00,,,0.00,weatherlink.com 1.10,2017-02-26 08:07:00,
2017-02-26 03:22:00,39.5,23.0,29.94,NE,53,5.0,13.0,51,0.00,,,0.00,weatherlink.com 1.10,2017-02-26 08:22:00,
2017-02-26 03:37:00,39.2,23.0,29.95,North,354,4.0,10.0,52,0.00,,,0.00,weatherlink.com 1.10,2017-02-26 08:37:00,
2017-02-26 03:52:00,38.8,22.0,29.95,NNW,327,1.0,11.0,52,0.00,,,0.00,weatherlink.com 1.10,2017-02-26 08:52:00,
2017-02-26 04:07:00,38.3,22.0,29.95,NNW,340,3.0,15.0,52,0.00,,,0.00,weatherlink.com 1.10,2017-02-26 09:07:00,
2017-02-26 04:22:00,37.9,22.0,29.96,NNW,332,3.0,14.0,53,0.00,,,0.00,weatherlink.com 1.10,2017-02-26 09:22:00,
2017-02-26 04:37:00,37.7,21.0,29.97,WNW,303,5.0,15.0,52,0.00,,,0.00,weatherlink.com 1.10,2017-02-26 09:37:00,
2017-02-26 04:52:00,37.4,21.0,29.98,NW,311,6.0,10.0,52,0.00,,,0.00,weatherlink.com 1.10,2017-02-26 09:52:00,
2017-02-26 05:07:00,37.2,21.0,29.99,NW,325,5.0,11.0,52,0.00,,,0.00,weatherlink.com 1.10,2017-02-26 10:07:00,
2017-02-26 05:22:00,36.9,21.0,30.00,NNW,345,6.0,8.0,52,0.00,,,0.00,weatherlink.com 1.10,2017-02-26 10:22:00,
2017-02-26 05:37:00,36.7,20.0,30.01,NNW,348,2.0,8.0,52,0.00,,,0.00,weatherlink.com 1.10,2017-02-26 10:37:00,
2017-02-26 05:52:00,36.4,20.0,30.02,WNW,299,6.0,10.0,51,0.00,,,0.00,weatherlink.com 1.10,2017-02-26 10:52:00,
2017-02-26 06:07:00,36.2,19.0,30.03,NNW,344,6.0,14.0,51,0.00,,,0.00,weatherlink.com 1.10,2017-02-26 11:07:00,
2017-02-26 06:22:00,35.9,19.0,30.04,NNE,30,1.0,11.0,51,0.00,,,0.00,weatherlink.com 1.10,2017-02-26 11:22:00,
2017-02-26 06:38:00,35.7,19.0,30.05,North,352,0.0,7.0,51,0.00,,,0.00,weatherlink.com 1.10,2017-02-26 11:38:00,
2017-02-26 06:52:00,35.7,19.0,30.06,NE,37,1.0,7.0,51,0.00,,,0.00,weatherlink.com 1.10,2017-02-26 11:52:00,
2017-02-26 07:07:00,35.7,19.0,30.06,NNW,339,0.0,6.0,51,0.00,,,0.00,weatherlink.com 1.10,2017-02-26 12:07:00,
2017-02-26 07:22:00,35.7,19.0,30.07,NNW,330,1.0,8.0,51,0.00,,,0.00,weatherlink.com 1.10,2017-02-26 12:22:00,
2017-02-26 07:37:00,35.9,18.0,30.08,WNW,295,4.0,15.0,49,0.00,,,0.00,weatherlink.com 1.10,2017-02-26 12:37:00,
2017-02-26 07:53:00,36.1,18.0,30.09,North,357,5.0,10.0,49,0.00,,,0.00,weatherlink.com 1.10,2017-02-26 12:53:00,
2017-02-26 08:07:00,36.6,19.0,30.10,NNW,336,14.0,14.0,49,0.00,,,0.00,weatherlink.com 1.10,2017-02-26 13:07:00,
2017-02-26 08:22:00,36.9,18.0,30.11,NNE,26,7.0,14.0,47,0.00,,,0.00,weatherlink.com 1.10,2017-02-26 13:22:00,
2017-02-26 08:38:00,37.2,18.0,30.11,NW,323,2.0,14.0,47,0.00,,,0.00,weatherlink.com 1.10,2017-02-26 13:38:00,
2017-02-26 08:53:00,37.6,19.0,30.12,NNW,337,0.0,12.0,47,0.00,,,0.00,weatherlink.com 1.10,2017-02-26 13:53:00,
2017-02-26 09:08:00,37.9,19.0,30.12,NW,315,12.0,12.0,46,0.00,,,0.00,weatherlink.com 1.10,2017-02-26 14:08:00,
2017-02-26 09:23:00,38.0,19.0,30.13,NNW,327,2.0,13.0,46,0.00,,,0.00,weatherlink.com 1.10,2017-02-26 14:23:00,
2017-02-26 09:38:00,38.6,20.0,30.14,NNW,345,7.0,14.0,47,0.00,,,0.00,weatherlink.com 1.10,2017-02-26 14:38:00,
2017-02-26 09:53:00,38.8,19.0,30.14,SE,135,5.0,16.0,45,0.00,,,0.00,weatherlink.com 1.10,2017-02-26 14:53:00,
2017-02-26 10:08:00,39.4,20.0,30.14,NW,319,6.0,15.0,45,0.00,,,0.00,weatherlink.com 1.10,2017-02-26 15:08:00,
2017-02-26 10:23:00,39.8,20.0,30.14,NNW,332,7.0,15.0,45,0.00,,,0.00,weatherlink.com 1.10,2017-02-26 15:23:00,
2017-02-26 10:38:00,40.1,20.0,30.14,NW,322,4.0,10.0,45,0.00,,,0.00,weatherlink.com 1.10,2017-02-26 15:38:00,
2017-02-26 10:53:00,40.8,20.0,30.14,NNW,348,2.0,11.0,44,0.00,,,0.00,weatherlink.com 1.10,2017-02-26 15:53:00,
2017-02-26 11:08:00,41.1,21.0,30.14,NNW,348,2.0,11.0,44,0.00,,,0.00,weatherlink.com 1.10,2017-02-26 16:08:00,
2017-02-26 11:23:00,41.4,21.0,30.14,NW,315,6.0,8.0,44,0.00,,,0.00,weatherlink.com 1.10,2017-02-26 16:23:00,
2017-02-26 11:38:00,42.0,21.0,30.14,NW,307,2.0,12.0,43,0.00,,,0.00,weatherlink.com 1.10,2017-02-26 16:38:00,
2017-02-26 11:53:00,42.1,20.0,30.14,NW,321,2.0,10.0,42,0.00,,,0.00,weatherlink.com 1.10,2017-02-26 16:53:00,
2017-02-26 12:08:00,43.1,21.0,30.14,NW,317,5.0,10.0,42,0.00,,,0.00,weatherlink.com 1.10,2017-02-26 17:08:00,
2017-02-26 12:23:00,43.3,21.0,30.14,SW,234,4.0,13.0,41,0.00,,,0.00,weatherlink.com 1.10,2017-02-26 17:23:00,
2017-02-26 12:38:00,43.5,22.0,30.13,NNE,24,0.0,12.0,42,0.00,,,0.00,weatherlink.com 1.10,2017-02-26 17:38:00,
2017-02-26 12:53:00,43.9,21.0,30.13,NNW,344,2.0,12.0,40,0.00,,,0.00,weatherlink.com 1.10,2017-02-26 17:53:00,
2017-02-26 13:08:00,44.7,21.0,30.13,West,268,2.0,11.0,39,0.00,,,0.00,weatherlink.com 1.10,2017-02-26 18:08:00,
2017-02-26 13:23:00,45.1,21.0,30.12,NNW,331,4.0,10.0,39,0.00,,,0.00,weatherlink.com 1.10,2017-02-26 18:23:00,
2017-02-26 13:38:00,45.5,21.0,30.12,SW,229,5.0,11.0,38,0.00,,,0.00,weatherlink.com 1.10,2017-02-26 18:38:00,
2017-02-26 13:53:00,46.4,21.0,30.12,WNW,292,2.0,10.0,37,0.00,,,0.00,weatherlink.com 1.10,2017-02-26 18:53:00,
2017-02-26 14:08:00,46.8,22.0,30.12,NNW,329,9.0,11.0,37,0.00,,,0.00,weatherlink.com 1.10,2017-02-26 19:08:00,
2017-02-26 14:23:00,46.7,21.0,30.12,NW,321,4.0,13.0,36,0.00,,,0.00,weatherlink.com 1.10,2017-02-26 19:23:00,
2017-02-26 14:38:00,47.0,22.0,30.12,SW,236,2.0,8.0,37,0.00,,,0.00,weatherlink.com 1.10,2017-02-26 19:38:00,
2017-02-26 14:53:00,47.3,22.0,30.13,NW,306,4.0,9.0,37,0.00,,,0.00,weatherlink.com 1.10,2017-02-26 19:53:00,
2017-02-26 15:08:00,48.1,23.0,30.13,North,357,4.0,9.0,37,0.00,,,0.00,weatherlink.com 1.10,2017-02-26 20:08:00,
2017-02-26 15:23:00,48.4,22.0,30.13,NNW,327,10.0,10.0,36,0.00,,,0.00,weatherlink.com 1.10,2017-02-26 20:23:00,
2017-02-26 15:38:00,48.6,22.0,30.13,NW,317,5.0,11.0,35,0.00,,,0.00,weatherlink.com 1.10,2017-02-26 20:38:00,
2017-02-26 15:53:00,48.6,22.0,30.13,NNW,344,5.0,9.0,35,0.00,,,0.00,weatherlink.com 1.10,2017-02-26 20:53:00,
2017-02-26 16:08:00,48.9,21.0,30.14,NNW,340,3.0,6.0,34,0.00,,,0.00,weatherlink.com 1.10,2017-02-26 21:08:00,
2017-02-26 16:23:00,49.0,22.0,30.14,NNW,342,6.0,7.0,35,0.00,,,0.00,weatherlink.com 1.10,2017-02-26 21:23:00,
2017-02-26 16:38:00,49.0,22.0,30.14,North,6,0.0,7.0,35,0.00,,,0.00,weatherlink.com 1.10,2017-02-26 21:38:00,
2017-02-26 16:53:00,49.1,22.0,30.15,NNW,340,4.0,5.0,34,0.00,,,0.00,weatherlink.com 1.10,2017-02-26 21:53:00,
2017-02-26 17:08:00,49.0,22.0,30.16,NNW,342,1.0,5.0,34,0.00,,,0.00,weatherlink.com 1.10,2017-02-26 22:08:00,
2017-02-26 17:23:00,48.5,21.0,30.17,NW,316,2.0,8.0,34,0.00,,,0.00,weatherlink.com 1.10,2017-02-26 22:23:00,
2017-02-26 17:38:00,48.1,22.0,30.17,NNW,330,1.0,5.0,36,0.00,,,0.00,weatherlink.com 1.10,2017-02-26 22:38:00,
2017-02-26 17:53:00,47.7,22.0,30.19,NNW,342,1.0,2.0,37,0.00,,,0.00,weatherlink.com 1.10,2017-02-26 22:53:00,
2017-02-26 18:08:00,47.3,23.0,30.20,NNW,342,0.0,1.0,38,0.00,,,0.00,weatherlink.com 1.10,2017-02-26 23:08:00,
2017-02-26 18:23:00,46.7,23.0,30.20,NNW,342,0.0,1.0,39,0.00,,,0.00,weatherlink.com 1.10,2017-02-26 23:23:00,
2017-02-26 18:39:00,46.0,23.0,30.21,NNW,342,0.0,1.0,40,0.00,,,0.00,weatherlink.com 1.10,2017-02-26 23:39:00,
2017-02-26 18:54:00,45.4,23.0,30.22,NNW,342,0.0,0.0,42,0.00,,,0.00,weatherlink.com 1.10,2017-02-26 23:54:00,
2017-02-26 19:09:00,44.5,24.0,30.23,NNW,342,0.0,0.0,45,0.00,,,0.00,weatherlink.com 1.10,2017-02-27 00:09:00,
2017-02-26 19:24:00,43.8,25.0,30.23,NNW,342,0.0,0.0,48,0.00,,,0.00,weatherlink.com 1.10,2017-02-27 00:24:00,
2017-02-26 19:39:00,42.8,26.0,30.24,NNW,342,0.0,0.0,51,0.00,,,0.00,weatherlink.com 1.10,2017-02-27 00:39:00,
2017-02-26 19:54:00,41.8,26.0,30.24,NNW,342,0.0,0.0,54,0.00,,,0.00,weatherlink.com 1.10,2017-02-27 00:54:00,
2017-02-26 20:09:00,41.3,26.0,30.25,NNW,342,0.0,0.0,56,0.00,,,0.00,weatherlink.com 1.10,2017-02-27 01:09:00,
2017-02-26 20:24:00,40.6,26.0,30.25,NNW,342,0.0,2.0,57,0.00,,,0.00,weatherlink.com 1.10,2017-02-27 01:24:00,
2017-02-26 20:39:00,40.1,27.0,30.25,NNW,342,0.0,0.0,59,0.00,,,0.00,weatherlink.com 1.10,2017-02-27 01:39:00,
2017-02-26 20:54:00,39.6,26.0,30.26,NNW,342,0.0,1.0,59,0.00,,,0.00,weatherlink.com 1.10,2017-02-27 01:54:00,
2017-02-26 21:09:00,39.3,25.0,30.27,NNW,342,0.0,0.0,58,0.00,,,0.00,weatherlink.com 1.10,2017-02-27 02:09:00,
2017-02-26 21:24:00,38.8,26.0,30.27,NNW,342,0.0,1.0,60,0.00,,,0.00,weatherlink.com 1.10,2017-02-27 02:24:00,
2017-02-26 21:39:00,38.4,26.0,30.28,NNW,342,0.0,0.0,61,0.00,,,0.00,weatherlink.com 1.10,2017-02-27 02:39:00,
2017-02-26 21:54:00,38.1,26.0,30.28,NNW,342,0.0,0.0,62,0.00,,,0.00,weatherlink.com 1.10,2017-02-27 02:54:00,
2017-02-26 22:09:00,37.6,26.0,30.28,NNW,342,0.0,0.0,63,0.00,,,0.00,weatherlink.com 1.10,2017-02-27 03:09:00,
2017-02-26 22:24:00,37.3,26.0,30.28,NNW,342,0.0,0.0,63,0.00,,,0.00,weatherlink.com 1.10,2017-02-27 03:24:00,
2017-02-26 22:39:00,36.9,26.0,30.29,NNW,342,0.0,0.0,65,0.00,,,0.00,weatherlink.com 1.10,2017-02-27 03:39:00,